Location: Gebenbach
(49.5378°N, 11.8735°E)
Time: 04:40:34
(UTC+00:00)

Cosmos 44 - Pass Details

Date: 29 October 2020
Orbit: 578 x 784 km, 65.1° (Epoch: 25 November)

Event Time Altitude Azimuth Distance (km) Brightness Sun altitude
Rises 17:22:05 0° 234° (SW) 2,886 7.5 -14.6°
Reaches altitude 10° 17:24:21 10° 240° (WSW) 2,012 6.7 -15.0°
Maximum altitude 17:28:47 50° 316° (NW) 840 4.0 -15.7°
Enters shadow 17:33:23 11° 32° (NNE) 2,098 5.4 -16.4°
